{"data":{"norad_id":56102,"epoch":"2026-05-25T04:45:04.392864Z","epoch_age_seconds":54984,"freshness":"FRESH","line1":"1 56102U 23046K   26145.19796751  .00000878  00000+0  41436-4 0  9996","line2":"2 56102  43.0021  89.3706 0000642 282.2229  77.8551 15.27578329173731","mean_motion":15.27578329,"eccentricity":6.42e-5,"inclination_deg":43.0021,"raan_deg":89.3706,"arg_perigee_deg":282.2229,"mean_anomaly_deg":77.8551,"bstar":4.1436e-5,"rev_number":17373,"period_min":94.266851830941,"perigee_km":482.61361115076,"apogee_km":483.49458808795,"semimajor_km":6861.1910996194,"source":"CELESTRAK","updated_at":"2026-05-25T13:38:17.954630Z"}}